Regional Weather Roundup
Issued by NWS

Home | Current Version | Previous Version | Graphics & Text | Print | Product List | Glossary On
Versions: 1 2 3 4 5 6 7 8 9 10 11 12 13 14 15 16 17 18 19 20 21 22 23 24 25 26 27 28 29 30 31 32 33 34 35 36 37 38 39 40 41 42 43 44 45 46 47 48 49 50
000
ASUS45 KPSR 232100
RWRAZ

ARIZONA HOURLY REGIONAL WEATHER ROUNDUP
NATIONAL WEATHER SERVICE PHOENIX AZ
200 PM MST SAT MAY 23 2015

NOTE: FAIR INDICATES FEW OR NO CLOUDS BELOW 12,000 FEET WITH NO
SIGNIFICANT WEATHER AND/OR OBSTRUCTIONS TO VISIBILITY.

AZZ001>003-036-232200-
NORTHWEST ARIZONA

CITY           SKY/WX    TMP DP  RH WIND       PRES   REMARKS
KINGMAN        MOSUNNY   71  36  27 S9G21     29.98F
$$

AZZ004>008-015-016-018-232200-
NORTH CENTRAL ARIZONA

CITY           SKY/WX    TMP DP  RH WIND       PRES   REMARKS
GRAND CANYON   LGT RAIN  47  43  86 VRB3      30.07S
WILLIAMS       PTSUNNY   55  34  44 SW16G23   30.15F
PRESCOTT       PTSUNNY   62  32  32 SW13      30.05F
FLAGSTAFF      NOT AVBL
PAYSON         PTSUNNY   63  32  31 S8        30.08F
PAGE           CLOUDY    57  42  57 SW6       29.99F
$$

AZZ009>014-017-232200-
NORTHEAST ARIZONA

CITY           SKY/WX    TMP DP  RH WIND       PRES   REMARKS
WINSLOW        NOT AVBL
SAINT JOHNS    SUNNY     65  22  19 W13G25    30.00F
WINDOW ROCK    CLOUDY    57  27  31 SW17      30.05S
$$

AZZ023-232200-
GREATER PHOENIX AREA

CITY           SKY/WX    TMP DP  RH WIND       PRES   REMARKS
PHOENIX        PTSUNNY   81  36  19 SW7       29.94F
GLENDALE       MOSUNNY   81  36  19 S14G21    29.97F
LUKE AFB       SUNNY     78  37  22 VRB7      29.94F
DEER VALLEY    MOSUNNY   78  35  21 W10G16    29.96F
SCOTTSDALE     SUNNY     77  34  21 VRB3      29.98F
MESA-FALCON    MOSUNNY   79  36  21 S7        29.96F
MESA-GATEWAY   MOSUNNY   77  37  24 SW14      29.99F
CHANDLER       PTSUNNY   77  36  22 W7        29.96F
$$

AZZ027-028-232200-
SOUTHWEST MARICOPA COUNTY AND PINAL COUNTY

CITY           SKY/WX    TMP DP  RH WIND       PRES   REMARKS
CASA GRANDE    SUNNY     79  36  21 CALM      29.96F
GILA BEND      FAIR      79  37  22 SW14      29.94F
$$

AZZ503-504-507>509-232200-
SOUTHEAST ARIZONA

CITY           SKY/WX    TMP DP  RH WIND       PRES   REMARKS
TUCSON         SUNNY     77  26  15 VRB5      30.00F
DAVIS-MONTHAN  SUNNY     75  27  16 CALM      29.99F
RYAN FIELD       N/A     75  32  20 NE3G16    30.00F
NOGALES        SUNNY     75  21  13 W9        30.03F
SIERRA VISTA   SUNNY     72  16  12 NW15G28   30.04F
SAFFORD        SUNNY     76  30  18 NW8       29.95F
$$

AZZ020-021-025-026-031-232200-
SOUTHWEST ARIZONA

CITY           SKY/WX    TMP DP  RH WIND       PRES   REMARKS
YUMA           SUNNY     82  44  26 VRB6      29.95F
$$

CAZ031-033-041-043-047-048-061-232200-
SOUTHERN CALIFORNIA

CITY           SKY/WX    TMP DP  RH WIND       PRES   REMARKS
DOWNTOWN L.A.  FAIR      71  53  52 VRB3      30.05F
L.A. AIRPORT   MOSUNNY   66  52  60 W12       30.08F
SAN DIEGO      MOSUNNY   67  51  56 SW12      30.10F
BURBANK        PTSUNNY   68  50  52 E10       30.05F
ONTARIO        CLOUDY    63  51  65 W6        30.07F
RIVERSIDE      CLOUDY    65  51  60 W5        30.07F
PALM SPRINGS   MOSUNNY   80  45  28 NW20      29.95F
EL CENTRO NAS  SUNNY     82  44  26 S14       29.95F
IMPERIAL       SUNNY     80  43  26 S7G21     29.93F
BLYTHE         SUNNY     84  43  23 S13G22    29.91F
$$

NVZ020-UTZ003-232200-
SOUTHERN NEVADA-UTAH

CITY           SKY/WX    TMP DP  RH WIND       PRES   REMARKS
LAS VEGAS      NOT AVBL
SALT LAKE CITY CLOUDY    58  46  64 N9        29.93S
$$

NMZ009-TXZ055-232200-
NEW MEXICO-WEST TEXAS

CITY           SKY/WX    TMP DP  RH WIND       PRES   REMARKS
ALBUQUERQUE    MOSUNNY   70  21  15 CALM      29.95F
EL PASO        MOSUNNY   81  17   9 W20G30    29.90F
$$


........................KEY........................
SKY/WX - SKY CONDITION/WEATHER
TMP    - TEMPERATURE IN FAHRENHEIT
DP     - DEW POINT IN FAHRENHEIT
RH     - RELATIVE HUMIDITY IN PERCENT
WIND   - DIRECTION AND SPEED IN MILES PER HOUR (MPH)
VRB    - VARIABLE WIND DIRECTION
PRES   - MEAN SEA LEVEL PRESSURE IN INCHES OF MERCURY
         F - FALLING PRESSURE   R - RISING PRESSURE
         S - STEADY PRESSURE
VSB    - VISIBILITY IN MILES
HX     - HEAT INDEX IN FAHRENHEIT
WCI    - WIND CHILL INDEX IN FAHRENHEIT
TC     - TEMPERATURE IN CELSIUS WHICH IS ALSO KNOWN AS
         TEMPERATURE IN CENTIGRADE
AFB    - AIR FORCE BASE
         LUKE AFB IS LUKE AIR FORCE BASE
         DAVIS-MONTHAN IS DAVIS-MONTHAN AIR FORCE BASE
NAS    - NAVAL AIR STATION
         EL CENTRO NAS IS EL CENTRO NAVAL AIR STATION
N/A    - NOT AVAILABLE



USA.gov is the U.S. government's official web portal to all federal, state and local government web resources and services.